Location: Copeville
(33.0796°N, 96.4155°W)
Time: 22:10:54
(UTC+00:00)

JUGNU - Pass Details

Date: 22 April 2024
Orbit: 835 x 862 km, 20.0° (Epoch: 18 May)

Event Time Altitude Azimuth Distance (km) Brightness Sun altitude
Rises 03:01:10 0° 249° (WSW) 3,373 ? -23.7°
Reaches altitude 10° 03:04:33 10° 230° (SW) 2,443 ? -24.2°
Enters shadow 03:07:31 17° 200° (SSW) 1,997 ? -24.7°
